FW3682 Weather Reports


time (UTC)temp
F
wind
direction
speed
knots
gust
knots
rain 1hr
in
rain 24hr
in
rain mn
in
humidity
%
barometer
mb
20260505151527 66 84 2.6 9.6 0.00 0.00 0.00 59 1018.3
20260505124530 59 94 0.9 3.5 0.00 0.00 0.00 68 1017.7
20260505123028 57 50 0.9 6.1 0.00 0.00 0.00 71 1017.3
20260505121534 56 0 0.9 7.8 0.00 0.00 0.00 72 1017.1
20260505120030 55 119 3.5 8.7 0.00 0.00 0.00 72 1017.0
20260505114528 54 0 1.7 7.8 0.00 0.00 0.00 73 1017.1
20260505113029 53 113 0.9 7.8 0.00 0.00 0.00 74 1017.0
20260505111529 53 80 0.9 7.0 0.00 0.00 0.00 75 1016.8
20260505101534 54 98 1.7 7.0 0.00 0.00 0.00 72 1017.0
20260505100033 54 86 0.9 7.8 0.00 0.00 0.00 70 1016.8
20260505094526 54 134 1.7 8.7 0.00 0.00 0.00 70 1016.6
20260505093028 54 96 1.7 6.1 0.00 0.00 0.00 70 1016.6
20260505091533 54 100 2.6 5.2 0.00 0.00 0.00 69 1016.5
20260505090040 54 87 2.6 6.1 0.00 0.00 0.00 68 1016.3
20260505084530 55 80 1.7 7.0 0.00 0.00 0.00 67 1016.4
20260505083028 55 100 1.7 7.0 0.00 0.00 0.00 67 1016.2
20260505081528 55 70 1.7 5.2 0.00 0.00 0.00 66 1016.1
20260505080040 56 40 0.9 5.2 0.00 0.00 0.00 64 1016.0
20260505074529 58 58 0.9 4.3 0.00 0.00 0.00 61 1015.9
20260505073034 60 0 0.0 6.1 0.00 0.00 0.00 57 1015.5
20260505071543 62 129 2.6 8.7 0.00 0.00 0.00 54 1015.5
20260505070028 62 0 0.9 7.8 0.00 0.00 0.00 54 1015.6
20260505064534 62 203 1.7 7.0 0.00 0.00 0.00 55 1015.6
20260505063028 61 115 1.7 7.8 0.00 0.00 0.00 56 1015.8
20260505061533 60 145 0.9 5.2 0.00 0.00 0.00 58 1016.0
20260505060035 60 114 1.7 6.1 0.00 0.00 0.00 58 1016.0
20260505054528 59 115 1.7 7.0 0.00 0.00 0.00 58 1016.2
20260505053028 59 36 1.7 7.8 0.00 0.00 0.00 58 1016.2
20260505051528 60 0 0.9 7.0 0.00 0.00 0.00 57 1016.4
20260505041528 62 61 1.7 6.1 0.00 0.00 0.00 53 1016.3
20260505040031 62 0 1.7 7.8 0.00 0.00 0.00 52 1016.3
20260505034526 63 57 0.9 5.2 0.00 0.00 0.00 51 1016.5
20260505033035 63 106 2.6 8.7 0.00 0.00 0.00 51 1016.5
20260505031530 63 84 0.9 10.4 0.00 0.00 0.00 50 1016.5
20260505030028 64 135 0.9 6.1 0.00 0.00 0.00 50 1016.5
20260505024544 64 99 0.9 7.0 0.00 0.00 0.00 50 1016.5
20260505023036 63 90 0.9 4.3 0.00 0.00 0.00 50 1016.4
20260505021610 64 91 0.0 3.5 0.00 0.00 0.00 50 1016.3
20260505020031 64 74 0.0 4.3 0.00 0.00 0.00 49 1016.2
20260505014536 65 0 0.9 5.2 0.00 0.00 0.00 48 1016.2
20260505013028 65 0 0.9 3.5 0.00 0.00 0.00 48 1016.1
20260505011528 66 94 0.9 5.2 0.00 0.00 0.00 46 1016.1
20260505010027 66 140 2.6 7.8 0.00 0.00 0.00 46 1015.9
20260505004530 66 82 0.0 3.5 0.00 0.00 0.00 45 1015.6
20260505003029 67 108 0.9 5.2 0.00 0.00 0.00 45 1015.2
20260505001529 68 0 0.0 2.6 0.00 0.00 0.00 43 1015.2
20260505000032 68 0 0.9 4.3 0.00 0.00 0.00 42 1015.2
20260504234528 69 0 0.0 2.6 0.00 0.00 0.00 42 1015.1
20260504233028 69 0 0.9 3.5 0.00 0.00 0.00 41 1015.0
20260504231527 69 319 0.0 3.5 0.00 0.00 0.00 40 1015.1
20260504230027 70 93 0.9 7.8 0.00 0.00 0.00 39 1015.1
20260504224535 71 0 0.0 6.1 0.00 0.00 0.00 40 1014.9
20260504223030 71 72 0.9 6.1 0.00 0.00 0.00 38 1015.1
20260504221530 72 0 1.7 8.7 0.00 0.00 0.00 37 1015.2
20260504220030 72 159 2.6 11.3 0.00 0.00 0.00 37 1015.1
20260504214528 73 53 3.5 12.2 0.00 0.00 0.00 36 1015.1
20260504213028 73 355 2.6 10.4 0.00 0.00 0.00 36 1015.1
20260504211528 73 81 2.6 7.8 0.00 0.00 0.00 36 1015.0
20260504210037 74 72 1.7 10.4 0.00 0.00 0.00 36 1015.2
20260504204537 74 92 1.7 9.6 0.00 0.00 0.00 34 1015.2
20260504203031 74 355 2.6 8.7 0.00 0.00 0.00 35 1015.4
20260504201529 74 93 3.5 8.7 0.00 0.00 0.00 33 1015.5
20260504200030 75 86 2.6 9.6 0.00 0.00 0.00 33 1015.7
20260504194530 75 352 0.9 7.0 0.00 0.00 0.00 35 1015.7
20260504193028 75 148 2.6 7.0 0.00 0.00 0.00 33 1016.0
20260504191528 75 88 1.7 6.1 0.00 0.00 0.00 34 1016.1
20260504190027 74 112 0.9 10.4 0.00 0.00 0.00 33 1016.3
20260504184528 74 71 3.5 9.6 0.00 0.00 0.00 33 1016.5
20260504183027 74 95 2.6 7.8 0.00 0.00 0.00 33 1016.7
20260504181530 73 65 1.7 7.8 0.00 0.00 0.00 34 1016.9
20260504180030 73 133 2.6 7.8 0.00 0.00 0.00 32 1017.1
20260504174527 72 95 1.7 6.1 0.00 0.00 0.00 33 1017.0
20260504173030 72 136 3.5 7.0 0.00 0.00 0.00 33 1017.2
20260504171528 71 82 0.9 7.0 0.00 0.00 0.00 36 1017.4